This is the latest recevied weather packets stored in our database for station/object KF7SOJ. If no packets are shown the sender has not sent any weather packets the latest 1 day(s).
| Time | Temp. | Humidity | Pressure | Rain* | Wind** | Luminosity | Snow |
|---|---|---|---|---|---|---|---|
| 1778025546 | 8.89° C | 32% | 933.3 hPa | 0 mm | 5.81 m/s, 48° | 380 W/m² | - |
| 1778025244 | 8.89° C | 33% | 933.3 hPa | 0 mm | 7.6 m/s, 29° | 448 W/m² | - |
| 1778024940 | 8.89° C | 33% | 933.2 hPa | 0 mm | 8.05 m/s, 26° | 132 W/m² | - |
| 1778024638 | 9.44° C | 32% | 933.2 hPa | 0 mm | 5.81 m/s, 68° | 472 W/m² | - |
| 1778024334 | 9.44° C | 32% | 933.2 hPa | 0 mm | 5.81 m/s, 18° | 499 W/m² | - |
| 1778024032 | 8.89° C | 34% | 933.2 hPa | 0 mm | 5.36 m/s, 12° | 442 W/m² | - |
| 1778023729 | 8.89° C | 32% | 933.2 hPa | 0 mm | 8.05 m/s, 36° | 182 W/m² | - |
| 1778023428 | 8.89° C | 32% | 933 hPa | 0 mm | 7.6 m/s, 20° | 487 W/m² | - |
| 1778023124 | 9.44° C | 31% | 933.2 hPa | 0 mm | 6.71 m/s, 30° | 293 W/m² | - |
| 1778022821 | 9.44° C | 33% | 933.1 hPa | 0 mm | 8.05 m/s, 25° | 504 W/m² | - |
| 1778022519 | 8.89° C | 33% | 933 hPa | 0 mm | 4.02 m/s, 19° | 665 W/m² | - |
| 1778022216 | 10° C | 32% | 933.1 hPa | 0 mm | 4.92 m/s, 18° | 623 W/m² | - |
| 1778021913 | 9.44° C | 33% | 933.1 hPa | 0 mm | 4.02 m/s, 22° | 594 W/m² | - |
| 1778021611 | 9.44° C | 33% | 933 hPa | 0 mm | 8.05 m/s, 30° | 591 W/m² | - |
| 1778021311 | 10° C | 31% | 933.2 hPa | 0 mm | 8.05 m/s, 23° | 639 W/m² | - |
| 1778021009 | 10° C | 32% | 933.1 hPa | 0 mm | 7.6 m/s, 22° | 757 W/m² | - |
| 1778020706 | 9.44° C | 31% | 932.7 hPa | 0 mm | 5.81 m/s, 19° | 771 W/m² | - |
| 1778020403 | 8.33° C | 33% | 933 hPa | 0 mm | 4.47 m/s, 45° | 303 W/m² | - |
| 1778020099 | 9.44° C | 32% | 933 hPa | 0 mm | 6.26 m/s, 23° | 222 W/m² | - |
| 1778019795 | 9.44° C | 33% | 932.9 hPa | 0 mm | 8.05 m/s, 36° | 812 W/m² | - |
| 1778019492 | 9.44° C | 32% | 932.9 hPa | 0 mm | 8.05 m/s, 21° | 294 W/m² | - |
| 1778019189 | 9.44° C | 32% | 932.8 hPa | 0 mm | 5.36 m/s, 40° | 793 W/m² | - |
| 1778018886 | 9.44° C | 33% | 932.9 hPa | 0 mm | 8.05 m/s, 22° | 774 W/m² | - |
| 1778018583 | 10° C | 32% | 932.8 hPa | 0 mm | 10.73 m/s, 37° | 864 W/m² | - |
| 1778018281 | 10° C | 33% | 932.9 hPa | 0 mm | 3.58 m/s, 13° | 735 W/m² | - |
* Rain latest hour (hover to see other rain measurements)
** Current wind speed in m/s (hover to see current wind gust speed)